2015-04-10 00:08:16 r, 19.59m,0000000002Hz,0000371363c,0000000.806s, 014.5C,00002191
2015-04-10 00:18:16 r, 19.79m,0000000001Hz,0000448339c,0000000.973s, 014.5C,00002191
2015-04-10 00:28:16 r, 19.76m,0000000001Hz,0000436979c,0000000.948s, 014.5C,00002191
2015-04-10 00:38:16 r, 19.83m,0000000001Hz,0000465540c,0000001.010s, 014.8C,00002191
2015-04-10 00:48:16 r, 19.75m,0000000001Hz,0000432040c,0000000.938s, 014.8C,00002191
2015-04-10 00:58:16 r, 19.37m,0000000002Hz,0000303264c,0000000.658s, 015.1C,00002191
2015-04-10 01:08:16 r, 19.22m,0000000002Hz,0000265935c,0000000.577s, 015.1C,00002191
2015-04-10 01:18:16 r, 19.32m,0000000002Hz,0000290900c,0000000.631s, 015.1C,00002191
2015-04-10 01:28:16 r, 19.42m,0000000002Hz,0000318812c,0000000.692s, 015.1C,00002191
2015-04-10 01:38:16 r, 19.85m,0000000001Hz,0000473223c,0000001.027s, 015.1C,00002191
2015-04-10 01:48:16 r, 19.88m,0000000001Hz,0000487551c,0000001.058s, 014.8C,00002191
2015-04-10 01:58:18 r, 19.60m,0000000002Hz,0000375589c,0000000.815s, 014.5C,00002191
2015-04-10 02:08:16 r, 19.65m,0000000002Hz,0000394513c,0000000.856s, 014.1C,00002191
2015-04-10 02:18:16 r, 19.40m,0000000001Hz,0000314216c,0000000.682s, 014.1C,00002191
2015-04-10 02:28:17 r, 19.01m,0000000002Hz,0000217293c,0000000.472s, 013.8C,00002191
2015-04-10 02:38:16 r, 18.38m,0000000004Hz,0000123049c,0000000.267s, 013.5C,00002191
2015-04-10 02:48:16 r, 18.76m,0000000003Hz,0000175646c,0000000.381s, 013.5C,00002191
2015-04-10 02:58:17 r, 18.63m,0000000002Hz,0000155939c,0000000.338s, 013.2C,00002191
2015-04-10 03:08:16 r, 19.37m,0000000002Hz,0000305450c,0000000.663s, 012.8C,00002191
2015-04-10 03:18:16 r, 19.37m,0000000001Hz,0000304270c,0000000.660s, 012.5C,00002191
2015-04-10 03:28:17 r, 19.56m,0000000001Hz,0000361069c,0000000.784s, 011.9C,00002191
2015-04-10 03:38:16 r, 19.44m,0000000001Hz,0000324588c,0000000.704s, 011.6C,00002191
2015-04-10 03:48:16 r, 19.72m,0000000001Hz,0000421293c,0000000.914s, 011.2C,00002191
2015-04-10 03:58:16 r, 19.73m,0000000002Hz,0000425412c,0000000.923s, 010.9C,00002191
2015-04-10 04:08:16 r, 19.82m,0000000001Hz,0000461663c,0000001.002s, 010.9C,00002191
2015-04-10 04:18:16 r, 19.85m,0000000001Hz,0000471054c,0000001.022s, 010.6C,00002191
2015-04-10 04:28:16 r, 19.87m,0000000001Hz,0000479957c,0000001.042s, 010.6C,00002191
2015-04-10 04:38:17 r, 19.85m,0000000001Hz,0000475109c,0000001.031s, 010.6C,00002191
2015-04-10 04:48:16 r, 19.82m,0000000001Hz,0000461977c,0000001.003s, 010.3C,00002191
2015-04-10 04:58:16 r, 19.71m,0000000001Hz,0000417353c,0000000.906s, 010.3C,00002191
2015-04-10 05:08:16 r, 19.58m,0000000001Hz,0000369687c,0000000.802s, 009.9C,00002191
2015-04-10 05:18:16 r, 19.40m,0000000002Hz,0000312072c,0000000.677s, 009.9C,00002191
2015-04-10 05:28:16 r, 19.10m,0000000002Hz,0000236996c,0000000.514s, 009.9C,00002191
2015-04-10 05:38:18 r, 18.47m,0000000003Hz,0000133413c,0000000.290s, 009.6C,00002191
2015-04-10 05:48:16 r, 17.40m,0000000009Hz,0000049693c,0000000.108s, 009.6C,00002191
2015-04-10 05:58:16 r, 15.92m,0000000036Hz,0000012761c,0000000.028s, 009.6C,00002191
2015-04-10 06:08:16 r, 14.08m,0000000197Hz,0000000000c,0000000.000s, 009.3C,00002191
2015-04-10 06:18:16 r, 12.08m,0000001249Hz,0000000000c,0000000.000s, 009.3C,00002191
2015-04-10 06:28:16 r, 10.16m,0000007277Hz,0000000000c,0000000.000s, 009.3C,00002191
2015-04-10 06:38:16 r, 08.53m,0000032717Hz,0000000000c,0000000.000s, 009.0C,00002191
2015-04-10 06:48:16 r, 07.34m,0000098138Hz,0000000000c,0000000.000s, 009.0C,00002191
2015-04-10 06:58:16 r, 06.50m,0000212880Hz,0000000000c,0000000.000s, 009.0C,00002191
2015-04-10 07:08:16 r, 00.00m,0000406011Hz,0000000000c,0000000.000s, 009.0C,00002191
2015-04-10 07:18:16 r, 00.00m,0000595762Hz,0000000000c,0000000.000s, 009.6C,00002191
2015-04-10 07:28:16 r, 00.00m,0000595687Hz,0000000000c,0000000.000s, 010.3C,00002191
2015-04-10 07:38:16 r, 00.00m,0000595662Hz,0000000000c,0000000.000s, 011.2C,00002191
2015-04-10 07:48:16 r, 00.00m,0000595648Hz,0000000000c,0000000.000s, 012.5C,00002191
2015-04-10 07:58:16 r, 00.00m,0000595528Hz,0000000000c,0000000.000s, 013.2C,00002191
2015-04-10 08:08:16 r, 00.00m,0000595421Hz,0000000000c,0000000.000s, 013.8C,00002191
2015-04-10 08:18:16 r, 00.00m,0000595360Hz,0000000000c,0000000.000s, 014.8C,00002191
2015-04-10 08:28:16 r, 00.00m,0000595255Hz,0000000000c,0000000.000s, 015.4C,00002191
2015-04-10 08:38:17 r, 00.00m,0000595201Hz,0000000000c,0000000.000s, 016.4C,00002191
2015-04-10 08:48:16 r, 00.00m,0000595205Hz,0000000000c,0000000.000s, 017.0C,00002191
2015-04-10 08:58:16 r, 00.00m,0000595189Hz,0000000000c,0000000.000s, 018.3C,00002191
2015-04-10 09:08:16 r, 00.00m,0000595081Hz,0000000000c,0000000.000s, 019.9C,00002191
2015-04-10 09:18:16 r, 00.00m,0000594877Hz,0000000000c,0000000.000s, 021.2C,00002191
2015-04-10 09:28:16 r, 00.00m,0000594786Hz,0000000000c,0000000.000s, 022.5C,00002191
2015-04-10 09:38:17 r, 00.00m,0000594669Hz,0000000000c,0000000.000s, 024.1C,00002191
2015-04-10 09:48:16 r, 00.00m,0000594610Hz,0000000000c,0000000.000s, 025.1C,00002191
2015-04-10 09:58:16 r, 00.00m,0000594553Hz,0000000000c,0000000.000s, 026.1C,00002191
2015-04-10 10:08:16 r, 00.00m,0000594375Hz,0000000000c,0000000.000s, 027.0C,00002191
2015-04-10 10:18:16 r, 00.00m,0000594302Hz,0000000000c,0000000.000s, 027.7C,00002191
2015-04-10 10:28:16 r, 00.00m,0000594151Hz,0000000000c,0000000.000s, 028.3C,00002191
2015-04-10 10:38:16 r, 00.00m,0000594069Hz,0000000000c,0000000.000s, 029.0C,00002191
2015-04-10 10:48:16 r, 00.00m,0000593978Hz,0000000000c,0000000.000s, 029.6C,00002191
2015-04-10 10:58:16 r, 00.00m,0000593993Hz,0000000000c,0000000.000s, 030.2C,00002191
2015-04-10 11:08:17 r, 00.00m,0000593874Hz,0000000000c,0000000.000s, 030.9C,00002191
2015-04-10 11:18:16 r, 00.00m,0000593775Hz,0000000000c,0000000.000s, 031.5C,00002191
2015-04-10 11:28:16 r, 00.00m,0000593615Hz,0000000000c,0000000.000s, 032.2C,00002191
2015-04-10 11:38:16 r, 00.00m,0000593593Hz,0000000000c,0000000.000s, 032.8C,00002191
2015-04-10 11:48:16 r, 00.00m,0000593565Hz,0000000000c,0000000.000s, 033.8C,00002191
2015-04-10 11:58:16 r, 00.00m,0000593510Hz,0000000000c,0000000.000s, 034.4C,00002191
2015-04-10 12:08:16 r, 00.00m,0000593430Hz,0000000000c,0000000.000s, 035.1C,00002191
2015-04-10 12:18:16 r, 00.00m,0000593320Hz,0000000000c,0000000.000s, 035.4C,00002191
2015-04-10 12:28:16 r, 00.00m,0000593282Hz,0000000000c,0000000.000s, 036.0C,00002191
2015-04-10 12:38:17 r, 00.00m,0000593147Hz,0000000000c,0000000.000s, 036.0C,00002191
2015-04-10 12:48:16 r, 00.00m,0000593210Hz,0000000000c,0000000.000s, 036.4C,00002191
2015-04-10 12:58:16 r, 00.00m,0000593191Hz,0000000000c,0000000.000s, 036.4C,00002191
2015-04-10 13:08:16 r, 00.00m,0000593023Hz,0000000000c,0000000.000s, 037.0C,00002191
2015-04-10 13:18:16 r, 00.00m,0000593007Hz,0000000000c,0000000.000s, 037.0C,00002191
2015-04-10 13:28:16 r, 00.00m,0000593027Hz,0000000000c,0000000.000s, 037.3C,00002191
2015-04-10 13:38:16 r, 00.00m,0000592955Hz,0000000000c,0000000.000s, 037.7C,00002191
2015-04-10 13:48:16 r, 00.00m,0000592950Hz,0000000000c,0000000.000s, 038.0C,00002191
2015-04-10 13:58:16 r, 00.00m,0000592921Hz,0000000000c,0000000.000s, 038.3C,00002191
2015-04-10 14:08:16 r, 00.00m,0000592872Hz,0000000000c,0000000.000s, 038.3C,00002191
2015-04-10 14:18:16 r, 00.00m,0000592836Hz,0000000000c,0000000.000s, 038.6C,00002191
2015-04-10 14:28:16 r, 00.00m,0000592787Hz,0000000000c,0000000.000s, 038.6C,00002191
2015-04-10 14:38:16 r, 00.00m,0000592818Hz,0000000000c,0000000.000s, 038.6C,00002191
2015-04-10 14:48:16 r, 00.00m,0000592796Hz,0000000000c,0000000.000s, 039.0C,00002191
2015-04-10 14:58:16 r, 00.00m,0000592833Hz,0000000000c,0000000.000s, 038.6C,00002191
2015-04-10 15:08:16 r, 00.00m,0000592962Hz,0000000000c,0000000.000s, 038.3C,00002191
2015-04-10 15:18:16 r, 00.00m,0000592948Hz,0000000000c,0000000.000s, 038.0C,00002191
2015-04-10 15:28:16 r, 00.00m,0000592960Hz,0000000000c,0000000.000s, 037.7C,00002191
2015-04-10 15:38:16 r, 00.00m,0000592995Hz,0000000000c,0000000.000s, 037.7C,00002191
2015-04-10 15:48:16 r, 00.00m,0000592953Hz,0000000000c,0000000.000s, 037.3C,00002191
2015-04-10 15:58:16 r, 00.00m,0000593050Hz,0000000000c,0000000.000s, 037.3C,00002191
2015-04-10 16:08:16 r, 00.00m,0000593040Hz,0000000000c,0000000.000s, 037.0C,00002191
2015-04-10 16:18:16 r, 00.00m,0000593159Hz,0000000000c,0000000.000s, 036.4C,00002191
2015-04-10 16:28:16 r, 00.00m,0000593239Hz,0000000000c,0000000.000s, 036.4C,00002191
2015-04-10 16:38:18 r, 00.00m,0000593198Hz,0000000000c,0000000.000s, 035.7C,00002191
2015-04-10 16:48:16 r, 00.00m,0000593361Hz,0000000000c,0000000.000s, 035.1C,00002191
2015-04-10 16:58:16 r, 00.00m,0000593427Hz,0000000000c,0000000.000s, 034.4C,00002191
2015-04-10 17:08:16 r, 00.00m,0000593480Hz,0000000000c,0000000.000s, 034.1C,00002191
2015-04-10 17:18:16 r, 00.00m,0000593497Hz,0000000000c,0000000.000s, 033.8C,00002191
2015-04-10 17:28:16 r, 00.00m,0000593575Hz,0000000000c,0000000.000s, 033.5C,00002191
2015-04-10 17:38:16 r, 00.00m,0000593671Hz,0000000000c,0000000.000s, 032.8C,00002191
2015-04-10 17:48:16 r, 00.00m,0000593670Hz,0000000000c,0000000.000s, 032.2C,00002191
2015-04-10 17:58:16 r, 00.00m,0000593830Hz,0000000000c,0000000.000s, 031.5C,00002191
2015-04-10 18:08:17 r, 00.00m,0000593889Hz,0000000000c,0000000.000s, 030.9C,00002191
2015-04-10 18:18:16 r, 00.00m,0000593944Hz,0000000000c,0000000.000s, 030.2C,00002191
2015-04-10 18:28:16 r, 00.00m,0000593961Hz,0000000000c,0000000.000s, 029.9C,00002191
2015-04-10 18:38:16 r, 00.00m,0000594192Hz,0000000000c,0000000.000s, 029.3C,00002191
2015-04-10 18:48:16 r, 00.00m,0000594188Hz,0000000000c,0000000.000s, 028.6C,00002191
2015-04-10 18:58:17 r, 00.00m,0000594217Hz,0000000000c,0000000.000s, 027.7C,00002191
2015-04-10 19:08:18 r, 00.00m,0000594307Hz,0000000000c,0000000.000s, 027.0C,00002191
2015-04-10 19:18:16 r, 00.00m,0000594433Hz,0000000000c,0000000.000s, 026.4C,00002191
2015-04-10 19:28:16 r, 00.00m,0000526387Hz,0000000000c,0000000.000s, 026.1C,00002191
2015-04-10 19:38:16 r, 00.00m,0000423539Hz,0000000000c,0000000.000s, 025.4C,00002191
2015-04-10 19:48:17 r, 06.08m,0000314701Hz,0000000000c,0000000.000s, 024.4C,00002191
2015-04-10 19:58:16 r, 06.54m,0000204140Hz,0000000000c,0000000.000s, 023.5C,00002191
2015-04-10 20:08:17 r, 07.24m,0000107883Hz,0000000000c,0000000.000s, 022.2C,00002191
2015-04-10 20:18:16 r, 08.24m,0000042840Hz,0000000000c,0000000.000s, 021.5C,00002191
2015-04-10 20:28:17 r, 09.67m,0000011399Hz,0000000000c,0000000.000s, 020.6C,00002191
2015-04-10 20:38:18 r, 11.52m,0000002095Hz,0000000000c,0000000.000s, 019.6C,00002191
2015-04-10 20:48:16 r, 13.55m,0000000322Hz,0000000000c,0000000.000s, 019.0C,00002191
2015-04-10 20:58:16 r, 15.61m,0000000048Hz,0000009624c,0000000.021s, 018.3C,00002191
2015-04-10 21:08:16 r, 17.22m,0000000011Hz,0000042265c,0000000.092s, 018.0C,00002191
2015-04-10 21:18:16 r, 18.50m,0000000004Hz,0000138089c,0000000.300s, 017.7C,00002191
2015-04-10 21:28:16 r, 19.51m,0000000002Hz,0000350561c,0000000.761s, 017.4C,00002191
2015-04-10 21:38:16 r, 20.16m,0000000001Hz,0000632745c,0000001.373s, 017.0C,00002191
2015-04-10 21:48:16 r, 20.44m,0000000001Hz,0000818036c,0000001.775s, 016.7C,00002191
2015-04-10 21:58:16 r, 20.55m,0000000001Hz,0000900401c,0000001.954s, 016.4C,00002191
2015-04-10 22:08:16 r, 20.58m,0000000000Hz,0000924017c,0000002.005s, 016.4C,00002191
2015-04-10 22:18:18 r, 20.55m,0000000000Hz,0000897401c,0000001.947s, 016.1C,00002191
2015-04-10 22:28:16 r, 20.40m,0000000001Hz,0000786140c,0000001.706s, 016.1C,00002191
2015-04-10 22:38:17 r, 20.27m,0000000001Hz,0000696768c,0000001.512s, 016.1C,00002191
2015-04-10 22:48:16 r, 20.03m,0000000001Hz,0000561443c,0000001.218s, 016.1C,00002191
2015-04-10 22:58:16 r, 20.00m,0000000001Hz,0000546866c,0000001.187s, 016.1C,00002191
2015-04-10 23:08:16 r, 19.85m,0000000001Hz,0000474202c,0000001.029s, 015.7C,00002191
2015-04-10 23:18:17 r, 19.95m,0000000001Hz,0000516536c,0000001.121s, 015.7C,00002191
2015-04-10 23:28:16 r, 19.22m,0000000002Hz,0000266845c,0000000.579s, 015.4C,00002191
2015-04-10 23:38:16 r, 19.16m,0000000001Hz,0000253497c,0000000.550s, 015.4C,00002191
2015-04-10 23:48:17 r, 19.55m,0000000001Hz,0000360012c,0000000.781s, 015.1C,00002191
2015-04-10 23:58:16 r, 20.06m,0000000001Hz,0000574040c,0000001.246s, 014.8C,00002191
